Regional Weather Roundup
Issued by NWS

Home | Current Version | Previous Version | Text Only | Print | Product List | Glossary Off
Versions: 1 2 3 4 5 6 7 8 9 10 11 12 13 14 15 16 17 18 19 20 21 22 23 24 25 26 27 28 29 30 31 32 33 34 35 36 37 38 39 40 41 42 43 44 45 46 47 48 49 50

000
ASUS43 KIND 232200
RWRIN

WEATHER ROUNDUP FOR INDIANA
NATIONAL WEATHER SERVICE INDIANAPOLIS IN
600 PM EDT SAT SEP 23 2017

NOTE: "FAIR" INDICATES FEW OR NO CLOUDS BELOW 12,000 FEET WITH NO
SIGNIFICANT WEATHER AND/OR OBSTRUCTIONS TO VISIBILITY.

* - STATION DOES NOT REPORT WEATHER SUCH AS PRECIPITATION OR FOG.

+ - STATION NOT QUALITY CONTROLLED BY THE NATIONAL WEATHER SERVICE.
    USE DATA WITH CAUTION...ESPECIALLY DEWPOINT AND RELATIVE
    HUMIDITY OBSERVATIONS.

INZ001>003-010>013-019-020-232300-
NORTHWEST INDIANA

CITY           SKY/WX    TMP DP  RH WIND       PRES   REMARKS

$$

LMZ046-743>745-232300-
SOUTHERN LAKE MICHIGAN

STATION/POSITION TIME  TEMP    WIND        PRES    WAVE
                       AIR SEA DIR/SP/G            HT
                 (UTC) (F)     (DEG/KT/KT) (MB)    (FT)
BURNS HARBOR     2140   78      70/  8/  9 1017.9S
MICHIGAN CITY    2130   77      50/ 13/ 13   N/A
5NW MICH CITY    2150   76 74   80/  8/  8   N/A     1

$$

INZ004-005-014>016-021>024-232300-
NORTH CENTRAL INDIANA

CITY           SKY/WX    TMP DP  RH WIND       PRES   REMARKS
ELKHART        SUNNY     90  64  43 E8        30.07S
GOSHEN         SUNNY     89  62  40 E8        30.08R
SOUTH BEND     SUNNY     90  62  39 E8        30.07S

$$

INZ006>009-017-018-025>027-232300-
NORTHEAST INDIANA

CITY           SKY/WX    TMP DP  RH WIND       PRES   REMARKS
FORT WAYNE     SUNNY     88  65  46 E6        30.08S
KENDALLVILLE + SUNNY     87  66  49 E3        30.10S

$$

INZ028-029-035-036-043>045-051>053-232300-
WEST CENTRAL INDIANA

CITY           SKY/WX    TMP DP  RH WIND       PRES   REMARKS
LAFAYETTE      SUNNY     89  66  46 NE7       30.03S
TERRE HAUTE    SUNNY     91  60  35 E9        30.03S

$$

INZ030>032-037>040-046>048-054>057-064-065-232300-
CENTRAL INDIANA

CITY           SKY/WX    TMP DP  RH WIND       PRES   REMARKS
COLUMBUS       SUNNY     90  50  25 E6        30.06R
INDIANAPOLIS   MOSUNNY   90  61  37 SE9       30.05F
-EAGLE CREEK   SUNNY     90  62  39 SE7       30.05S
KOKOMO +       SUNNY     88  66  48 E7        30.08R
MT COMFORT *+  SUNNY     90  63  40 E6        30.07S
SHELBYVILLE    SUNNY     91  61  36 SE8       30.05S

$$

INZ033-034-041-042-049-050-058-059-232300-
EAST CENTRAL INDIANA

CITY           SKY/WX    TMP DP  RH WIND       PRES   REMARKS
MUNCIE         SUNNY     91  58  32 E10       30.07S
RICHMOND +     SUNNY     88  59  37 E6        30.10R

$$

INZ060-061-067>069-081>083-085>088-232300-
SOUTHWEST INDIANA

CITY           SKY/WX    TMP DP  RH WIND       PRES   REMARKS
EVANSVILLE     SUNNY     87  62  43 E7        30.02F
HUNTINGBURG +  SUNNY     86  65  49 SE9       30.04S

$$

INZ062-063-066-070>080-084-089>092-232300-
SOUTH CENTRAL AND SOUTHEAST INDIANA

CITY           SKY/WX    TMP DP  RH WIND       PRES   REMARKS
BLOOMINGTON    SUNNY     89  56  32 SE13      30.05S
MADISON *+     SUNNY     86  59  39 E5        30.09R
SEYMOUR +      SUNNY     90  63  40 SE6       30.05S

$$





USA.gov is the U.S. government's official web portal to all federal, state and local government web resources and services.